Weather observations for the past three days for
St Clair County Airport
| Date | Time (cdt) | Wind (kph) | Vis. (km) | Weather | Sky Cond. | Temperature (ºC) | Relative Humidity | Wind Chill (°C) | Heat Index (°C) | Pressure | Precipitation (cm) | ||||||
|---|---|---|---|---|---|---|---|---|---|---|---|---|---|---|---|---|---|
| Air | Dwpt | 6 hour | altimeter (cm) | sea level (mb) | 1 hr | 3 hr | 6 hr | ||||||||||
| Max. | Min. | ||||||||||||||||
| 10 | 04:15 | Calm | 11.27 | Overcast | OVC004 | 16 | 16 | 100% | 76.15 | 0.0 | |||||||
| 10 | 03:55 | Calm | 4.83 | Fog/Mist | OVC003 | 16 | 16 | 100% | 76.12 | 0.0 | |||||||
| 10 | 03:35 | Calm | 3.22 | Fog/Mist | OVC003 | 16 | 16 | 100% | 76.1 | 0.0 | |||||||
| 10 | 03:15 | Calm | 0.80 | Fog | OVC004 | 16 | 16 | 100% | 76.1 | 0.0 | |||||||
| 10 | 02:55 | Calm | 0.24 | Fog | OVC002 | 16 | 16 | 100% | 76.1 | 0.0 | |||||||
| 10 | 02:35 | Calm | 0.40 | Fog | OVC002 | 15 | 15 | 100% | 76.07 | 0.0 | |||||||
| 10 | 02:15 | Calm | 6.44 | Fog/Mist | OVC002 | 15 | 15 | 100% | 76.1 | 0.0 | |||||||
| 10 | 01:55 | Calm | 12.87 | Overcast | SCT002 SCT009 OVC032 | 15 | 15 | 100% | 76.1 | 0.0 | |||||||
| 10 | 01:35 | Calm | 8.05 | Fog/Mist | BKN002 OVC034 | 15 | 15 | 100% | 76.12 | 0.0 | |||||||
| 10 | 01:15 | Calm | 9.66 | Fog/Mist | BKN004 BKN035 BKN065 | 16 | 16 | 100% | 76.12 | 0.0 | |||||||
| 10 | 00:55 | Calm | 12.87 | Overcast | OVC005 | 16 | 16 | 100% | 76.12 | 0.0 | |||||||
| 10 | 00:35 | Calm | 14.48 | Overcast | OVC005 | 16 | 16 | 100% | 76.12 | 0.0 | |||||||
| 10 | 00:15 | Calm | 14.48 | Overcast | BKN006 OVC014 | 16 | 16 | 100% | 76.12 | 0.0 | |||||||
| 09 | 23:55 | Calm | 6.44 | Fog/Mist | BKN008 BKN014 BKN029 | 16 | 16 | 100% | 76.12 | 0.0 | |||||||
| 09 | 23:35 | Calm | 11.27 | Overcast | BKN009 BKN030 OVC037 | 16 | 16 | 100% | 76.12 | 0.0 | |||||||
| 09 | 23:15 | Calm | 12.87 | Mostly Cloudy | FEW009 FEW029 BKN037 | 16 | 16 | 100% | 76.15 | 0.0 | |||||||
| 09 | 22:55 | Calm | 11.27 | Mostly Cloudy | BKN036 BKN065 | 17 | 17 | 100% | 76.15 | 0.0 | |||||||
| 09 | 22:35 | Calm | 14.48 | Mostly Cloudy | BKN036 BKN060 | 17 | 17 | 100% | 76.15 | 0.0 | |||||||
| 09 | 22:15 | Calm | 14.48 | Overcast | BKN035 OVC060 | 17 | 17 | 100% | 76.15 | 0.0 | |||||||
| 09 | 21:55 | Calm | 16.09 | Mostly Cloudy | SCT037 BKN065 | 18 | 18 | 100% | 76.15 | 0.0 | |||||||
| 09 | 21:35 | Calm | 16.09 | Partly Cloudy | FEW036 FEW042 SCT065 | 18 | 18 | 100% | 76.1 | 0.0 | |||||||
| 09 | 21:15 | Calm | 16.09 | A Few Clouds | FEW038 FEW044 FEW070 | 18 | 18 | 100% | 76.1 | 0.0 | |||||||
| 09 | 20:55 | Calm | 16.09 | Fair | CLR | 18 | 18 | 100% | 76.07 | 0.0 | |||||||
| 09 | 20:35 | Calm | 16.09 | Fair | CLR | 18 | 18 | 100% | 76.05 | 0.0 | |||||||
| 09 | 19:35 | Calm | 16.09 | Fair | CLR | 20 | 19 | 94% | 76 | 0.0 | |||||||
| 09 | 19:15 | Calm | 16.09 | Fair | CLR | 20 | 20 | 100% | 76 | 0.0 | |||||||
| 09 | 18:35 | Calm | 16.09 | Fair | CLR | 20 | 20 | 100% | 75.95 | 0.0 | |||||||
| 09 | 18:15 | Calm | 16.09 | Fair | CLR | 21 | 20 | 94% | 75.95 | 0.0 | |||||||
| 09 | 17:55 | Calm | 16.09 | Fair | CLR | 21 | 20 | 94% | 75.95 | 0.0 | |||||||
| 09 | 17:35 | Calm | 16.09 | Fair | CLR | 22 | 19 | 83% | 75.92 | 0.0 | |||||||
| 09 | 17:15 | SW 6 | 16.09 | Fair | CLR | 22 | 19 | 83% | 75.92 | 0.0 | |||||||
| 09 | 16:55 | SW 9 | 16.09 | Fair | CLR | 22 | 19 | 83% | 75.9 | 0.0 | |||||||
| 09 | 16:35 | SW 6 | 16.09 | Fair | CLR | 23 | 18 | 74% | 75.9 | 0.0 | |||||||
| 09 | 16:15 | SW 11 | 16.09 | Fair | CLR | 23 | 18 | 74% | 75.9 | 0.0 | |||||||
| 09 | 15:55 | SW 9 | 16.09 | Fair | CLR | 23 | 18 | 74% | 75.9 | 0.0 | |||||||
| 09 | 15:35 | Calm | 16.09 | Fair | CLR | 23 | 18 | 74% | 75.87 | 0.0 | |||||||
| 09 | 14:55 | Calm | 16.09 | Fair | CLR | 24 | 18 | 69% | 25 | 75.92 | 0.0 | ||||||
| 09 | 14:35 | Calm | 16.09 | Fair | CLR | 23 | 17 | 69% | 75.92 | 0.0 | |||||||
| 09 | 14:15 | SW 7 | 16.09 | Fair | CLR | 23 | 18 | 74% | 75.92 | 0.0 | |||||||
| 09 | 13:55 | SW 11 | 16.09 | Fair | CLR | 23 | 18 | 74% | 75.95 | 0.0 | |||||||
| 09 | 13:35 | SW 9 | 16.09 | Fair | CLR | 23 | 18 | 74% | 75.97 | 0.0 | |||||||
| 09 | 13:15 | Calm | 16.09 | A Few Clouds | FEW022 | 22 | 18 | 78% | 75.97 | 0.0 | |||||||
| 09 | 12:55 | SW 11 | 16.09 | A Few Clouds | FEW021 | 22 | 18 | 78% | 76 | 0.0 | |||||||
| 09 | 12:35 | SW 9 | 16.09 | A Few Clouds | FEW021 | 22 | 18 | 78% | 76 | 0.0 | |||||||
| 09 | 12:15 | SW 9 | 16.09 | Mostly Cloudy | BKN020 | 21 | 18 | 83% | 76 | 0.0 | |||||||
| 09 | 11:55 | SW 6 | 16.09 | Mostly Cloudy | BKN018 | 21 | 18 | 83% | 76 | 0.0 | |||||||
| 09 | 11:35 | SW 7 | 16.09 | Overcast | OVC017 | 21 | 18 | 83% | 76.02 | 0.0 | |||||||
| 09 | 10:55 | Calm | 16.09 | Overcast | OVC015 | 19 | 18 | 94% | 76.05 | 0.0 | |||||||
| 09 | 10:35 | Calm | 16.09 | Overcast | OVC013 | 19 | 19 | 100% | 76.07 | 0.0 | |||||||
| 09 | 10:15 | SW 7 | 16.09 | Overcast | OVC012 | 18 | 18 | 100% | 76.05 | 0.0 | |||||||
| 09 | 09:55 | SW 9 | 16.09 | Overcast | OVC012 | 18 | 18 | 100% | 76.07 | 0.0 | |||||||
| 09 | 09:35 | SW 7 | 16.09 | Overcast | OVC013 | 18 | 18 | 100% | 76.05 | 0.0 | |||||||
| 09 | 08:55 | SW 9 | 16.09 | Overcast | BKN009 OVC013 | 18 | 18 | 100% | 76.05 | 0.0 | |||||||
| 09 | 08:35 | SW 6 | 16.09 | Overcast | BKN008 OVC012 | 18 | 17 | 94% | 76.02 | 0.0 | |||||||
| 09 | 07:55 | Calm | 14.48 | Overcast | OVC006 | 17 | 17 | 100% | 75.97 | 0.0 | |||||||
| 09 | 07:35 | SW 7 | 11.27 | Overcast | OVC005 | 17 | 17 | 100% | 75.97 | 0.0 | |||||||
| 09 | 07:15 | SW 11 G 24 | 9.66 | Fog/Mist | OVC005 | 17 | 17 | 100% | 75.97 | 0.0 | |||||||
| 09 | 06:55 | SW 13 | 11.27 | Overcast | OVC005 | 16 | 16 | 100% | 75.97 | 0.0 | |||||||
| 09 | 06:35 | SW 9 | 16.09 | Overcast | OVC005 | 16 | 16 | 100% | 75.95 | 0.0 | |||||||
| 09 | 06:15 | Calm | 16.09 | Overcast | OVC006 | 16 | 16 | 100% | 75.97 | 0.0 | |||||||
| 09 | 05:55 | Calm | 16.09 | Overcast | OVC007 | 16 | 16 | 100% | 75.92 | 0.0 | |||||||
| 09 | 05:35 | Calm | 16.09 | Overcast | OVC008 | 16 | 16 | 100% | 75.95 | 0.0 | |||||||
| 09 | 05:15 | Calm | 16.09 | Overcast | OVC008 | 16 | 16 | 100% | 75.9 | 0.0 | |||||||
| 09 | 04:55 | W 9 | 16.09 | Overcast | BKN007 OVC012 | 16 | 16 | 100% | 75.9 | 0.0 | |||||||
| 09 | 04:35 | SW 11 | 16.09 | Overcast | OVC012 | 16 | 16 | 100% | 75.87 | 0.0 | |||||||
| 09 | 04:15 | Calm | 16.09 | Overcast | OVC013 | 15 | 15 | 100% | 75.84 | 0.0 | |||||||
| 09 | 03:55 | Calm | 16.09 | Overcast | BKN016 OVC039 | 15 | 15 | 100% | 75.95 | 0.0 | |||||||
| 09 | 03:35 | Calm | 16.09 | Overcast | OVC017 | 14 | 14 | 100% | 76 | 0.0 | |||||||
| 09 | 03:15 | Calm | 16.09 | Overcast | OVC018 | 14 | 14 | 100% | 75.97 | 0.0 | |||||||
| 09 | 02:55 | Calm | 16.09 | Overcast | OVC018 | 14 | 14 | 100% | 75.95 | 0.0 | |||||||
| 09 | 02:35 | Calm | 16.09 | Overcast | OVC020 | 13 | 13 | 100% | 75.95 | 0.0 | |||||||
| 09 | 02:15 | Calm | 12.87 | Mostly Cloudy | SCT022 BKN026 | 13 | 13 | 100% | 75.92 | 0.0 | |||||||
| 09 | 01:55 | Calm | 14.48 | Partly Cloudy | FEW026 FEW035 SCT044 | 13 | 13 | 100% | 75.95 | 0.0 | |||||||
| 09 | 01:35 | Calm | 16.09 | Mostly Cloudy | FEW026 SCT033 BKN055 | 13 | 13 | 100% | 75.92 | 0.0 | |||||||
| 09 | 01:15 | Calm | 16.09 | Overcast | BKN028 OVC033 | 13 | 13 | 100% | 75.95 | 0.0 | |||||||
| 09 | 00:55 | Calm | 16.09 | Overcast | OVC031 | 13 | 13 | 100% | 75.97 | 0.0 | |||||||
| 09 | 00:35 | Calm | 16.09 | Overcast | BKN030 OVC042 | 13 | 13 | 100% | 76 | 0.0 | |||||||
| 09 | 00:15 | Calm | 16.09 | Overcast | BKN036 OVC042 | 13 | 13 | 100% | 76.02 | 0.0 | |||||||
| 08 | 23:55 | Calm | 16.09 | Overcast | BKN035 OVC041 | 13 | 13 | 100% | 76.02 | 0.0 | |||||||
| 08 | 23:35 | Calm | 16.09 | Overcast | SCT032 BKN040 OVC060 | 13 | 13 | 100% | 76.02 | 0.0 | |||||||
| 08 | 23:15 | Calm | 16.09 | Partly Cloudy | FEW032 FEW037 SCT045 | 13 | 13 | 100% | 76 | 0.0 | |||||||
| 08 | 22:55 | Calm | 16.09 | Partly Cloudy | FEW023 FEW030 SCT048 | 13 | 13 | 100% | 76.02 | 0.0 | |||||||
| 08 | 22:35 | Calm | 16.09 | Mostly Cloudy | FEW024 SCT037 BKN046 | 13 | 13 | 100% | 76.02 | 0.0 | |||||||
| 08 | 22:15 | Calm | 16.09 | Mostly Cloudy | FEW020 FEW025 BKN048 | 13 | 13 | 100% | 76.02 | 0.0 | |||||||
| 08 | 21:55 | Calm | 16.09 | Overcast | OVC050 | 14 | 14 | 100% | 76.02 | 0.0 | |||||||
| 08 | 21:35 | Calm | 16.09 | Overcast | FEW028 SCT041 OVC050 | 14 | 14 | 100% | 76.05 | 0.0 | |||||||
| 08 | 21:15 | Calm | 16.09 | Mostly Cloudy | SCT027 SCT033 BKN055 | 14 | 14 | 100% | 76.05 | 0.0 | |||||||
| 08 | 20:55 | Calm | 16.09 | Mostly Cloudy | FEW028 FEW033 BKN060 | 14 | 14 | 100% | 76.02 | 0.0 | |||||||
| 08 | 20:35 | Calm | 16.09 | Overcast | OVC060 | 14 | 14 | 100% | 76.02 | 0.0 | |||||||
| 08 | 20:15 | Calm | 16.09 | Partly Cloudy | FEW026 SCT060 | 15 | 15 | 100% | 76.02 | 0.0 | |||||||
| 08 | 19:55 | Calm | 16.09 | Fair | CLR | 15 | 15 | 100% | 76.05 | 0.0 | |||||||
| 08 | 19:35 | Calm | 16.09 | Fair | CLR | 15 | 15 | 100% | 76.05 | 0.0 | |||||||
| 08 | 19:15 | Calm | 16.09 | Fair | CLR | 16 | 16 | 100% | 76.05 | 0.0 | |||||||
| 08 | 18:55 | Calm | 16.09 | Fair | CLR | 16 | 16 | 100% | 76.1 | 0.0 | |||||||
| 08 | 18:35 | Calm | 16.09 | Fair | CLR | 17 | 15 | 88% | 76.1 | 0.0 | |||||||
| 08 | 18:15 | Calm | 16.09 | Fair | CLR | 18 | 15 | 83% | 76.1 | 0.0 | |||||||
| 08 | 17:55 | Calm | 16.09 | Fair | CLR | 18 | 15 | 83% | 76.1 | 0.0 | |||||||
| 08 | 17:35 | Calm | 16.09 | Fair | CLR | 18 | 14 | 78% | 76.1 | 0.0 | |||||||
| 08 | 17:15 | Calm | 16.09 | Fair | CLR | 18 | 13 | 73% | 76.1 | 0.0 | |||||||
| 08 | 16:55 | SW 9 | 16.09 | Fair | CLR | 19 | 13 | 68% | 76.1 | 0.0 | |||||||
| 08 | 16:35 | SW 9 | 16.09 | Fair | CLR | 19 | 12 | 64% | 76.1 | 0.0 | |||||||
| 08 | 16:15 | SW 7 | 16.09 | Fair | CLR | 19 | 12 | 64% | 76.12 | 0.0 | |||||||
| 08 | 15:55 | Calm | 16.09 | Fair | CLR | 19 | 12 | 64% | 76.1 | 0.0 | |||||||
| 08 | 15:35 | SW 6 | 16.09 | Fair | CLR | 20 | 12 | 60% | 76.12 | 0.0 | |||||||
| 08 | 15:15 | SW 7 | 16.09 | Fair | CLR | 20 | 12 | 60% | 76.15 | 0.0 | |||||||
| 08 | 14:55 | Calm | 16.09 | Fair | CLR | 20 | 11 | 56% | 76.15 | 0.0 | |||||||
| 08 | 14:35 | Calm | 16.09 | Fair | CLR | 20 | 11 | 56% | 76.15 | 0.0 | |||||||
| 08 | 14:15 | SW 9 | 16.09 | Fair | CLR | 20 | 10 | 53% | 76.12 | 0.0 | |||||||
| 08 | 13:55 | SW 9 | 16.09 | Fair | CLR | 20 | 11 | 56% | 76.17 | 0.0 | |||||||
| 08 | 13:35 | Calm | 16.09 | Fair | CLR | 20 | 9 | 49% | 76.2 | 0.0 | |||||||
| 08 | 13:15 | Calm | 16.09 | Fair | CLR | 21 | 9 | 46% | 76.23 | 0.0 | |||||||
| 08 | 12:55 | Calm | 16.09 | Fair | CLR | 21 | 9 | 46% | 76.23 | 0.0 | |||||||
| 08 | 12:35 | Vrbl 9 | 16.09 | Fair | CLR | 21 | 9 | 46% | 76.25 | 0.0 | |||||||
| 08 | 11:55 | Calm | 16.09 | Fair | CLR | 20 | 8 | 46% | 76.3 | 0.0 | |||||||
| 08 | 11:35 | Calm | 16.09 | Fair | CLR | 20 | 8 | 46% | 76.33 | 0.0 | |||||||
| 08 | 11:15 | Vrbl 11 | 16.09 | Fair | CLR | 20 | 8 | 46% | 76.33 | 0.0 | |||||||
| 08 | 10:55 | Vrbl 9 | 16.09 | Fair | CLR | 19 | 9 | 52% | 76.35 | 0.0 | |||||||
| 08 | 10:35 | Vrbl 7 | 16.09 | Fair | CLR | 18 | 11 | 64% | 76.38 | 0.0 | |||||||
| 08 | 10:15 | Calm | 16.09 | Fair | CLR | 17 | 12 | 73% | 76.4 | 0.0 | |||||||
| 08 | 09:55 | Calm | 16.09 | Fair | CLR | 17 | 11 | 68% | 76.4 | 0.0 | |||||||
| 08 | 09:35 | Vrbl 9 | 16.09 | Fair | CLR | 18 | 11 | 64% | 76.4 | 0.0 | |||||||
| 08 | 09:15 | Calm | 16.09 | Fair | CLR | 17 | 11 | 68% | 76.43 | 0.0 | |||||||
| 08 | 08:55 | Calm | 16.09 | Fair | CLR | 16 | 11 | 72% | 76.45 | 0.0 | |||||||
| 08 | 08:35 | Calm | 14.48 | Fair | CLR | 16 | 13 | 83% | 76.4 | 0.0 | |||||||
| 08 | 08:15 | Calm | 16.09 | Fair | CLR | 15 | 14 | 94% | 76.4 | 0.0 | |||||||
| 08 | 07:55 | Calm | 16.09 | Fair | CLR | 14 | 14 | 100% | 76.4 | 0.0 | |||||||
| 08 | 07:15 | Calm | 16.09 | Fair | CLR | 12 | 12 | 100% | 76.38 | 0.0 | |||||||
| 08 | 06:55 | Calm | 16.09 | Fair | CLR | 12 | 12 | 100% | 76.38 | 0.0 | |||||||
| 08 | 06:35 | Calm | 16.09 | Fair | CLR | 11 | 11 | 100% | 76.35 | 0.0 | |||||||
| 08 | 06:15 | Calm | 9.66 | Fog/Mist | CLR | 10 | 10 | 100% | 76.33 | 0.0 | |||||||
| 08 | 05:55 | Calm | 9.66 | Fog/Mist | CLR | 10 | 10 | 100% | 76.3 | 0.0 | |||||||
| 08 | 05:35 | Calm | 14.48 | Fair | CLR | 10 | 10 | 100% | 76.28 | 0.0 | |||||||
| 08 | 05:15 | Calm | 12.87 | A Few Clouds | FEW027 FEW039 | 10 | 10 | 100% | 76.25 | 0.0 | |||||||
| 08 | 04:55 | Calm | 16.09 | A Few Clouds | FEW026 FEW039 | 10 | 10 | 100% | 76.23 | 0.0 | |||||||
| 08 | 04:35 | Calm | 16.09 | A Few Clouds | FEW027 FEW036 FEW045 | 10 | 10 | 100% | 76.2 | 0.0 | |||||||
| 08 | 04:15 | Calm | 16.09 | Partly Cloudy | FEW036 SCT043 | 11 | 11 | 100% | 76.2 | 0.0 | |||||||
| 08 | 03:55 | Calm | 14.48 | Mostly Cloudy | BKN036 BKN041 | 10 | 10 | 100% | 76.17 | 0.0 | |||||||
| 08 | 03:35 | Calm | 12.87 | Mostly Cloudy | BKN036 | 10 | 10 | 100% | 76.17 | 0.0 | |||||||
| 08 | 03:15 | Calm | 14.48 | Mostly Cloudy | BKN036 BKN042 BKN047 | 11 | 11 | 100% | 76.17 | 0.0 | |||||||
| 08 | 02:55 | Calm | 12.87 | Mostly Cloudy | BKN035 BKN044 | 11 | 11 | 100% | 76.17 | 0.0 | |||||||
| 08 | 02:35 | Calm | 12.87 | Partly Cloudy | SCT033 SCT041 | 11 | 11 | 100% | 76.17 | 0.0 | |||||||
| 08 | 02:15 | Calm | 16.09 | Partly Cloudy | SCT035 SCT046 | 12 | 12 | 100% | 76.17 | 0.0 | |||||||
| 08 | 01:55 | Calm | 16.09 | Partly Cloudy | SCT035 SCT040 SCT047 | 12 | 12 | 100% | 76.2 | 0.0 | |||||||
| 08 | 01:35 | Calm | 16.09 | Partly Cloudy | FEW032 SCT040 SCT048 | 12 | 12 | 100% | 76.2 | 0.0 | |||||||
| 08 | 01:15 | Calm | 16.09 | A Few Clouds | FEW045 | 12 | 12 | 100% | 76.2 | 0.0 | |||||||
| 08 | 00:55 | Calm | 16.09 | A Few Clouds | FEW042 FEW047 | 12 | 12 | 100% | 76.23 | 0.0 | |||||||
| 08 | 00:35 | Calm | 16.09 | Partly Cloudy | FEW038 SCT045 | 12 | 12 | 100% | 76.23 | 0.0 | |||||||
| 08 | 00:15 | Calm | 16.09 | Partly Cloudy | FEW025 SCT037 SCT048 | 12 | 12 | 100% | 76.25 | 0.0 | |||||||
| 07 | 23:55 | Calm | 16.09 | Partly Cloudy | FEW025 SCT038 SCT048 | 12 | 12 | 100% | 76.25 | 0.0 | |||||||
| 07 | 23:35 | Calm | 16.09 | Mostly Cloudy | BKN039 BKN055 | 12 | 12 | 100% | 76.23 | 0.0 | |||||||
| 07 | 23:15 | Calm | 16.09 | Mostly Cloudy | SCT039 BKN055 | 13 | 13 | 100% | 76.25 | 0.0 | |||||||
| 07 | 22:55 | Calm | 16.09 | Partly Cloudy | FEW043 SCT060 | 13 | 13 | 100% | 76.25 | 0.0 | |||||||
| 07 | 22:35 | Calm | 16.09 | Mostly Cloudy | BKN065 | 13 | 13 | 100% | 76.23 | 0.0 | |||||||
| 07 | 22:15 | Calm | 16.09 | Mostly Cloudy | BKN065 | 14 | 14 | 100% | 76.23 | 0.0 | |||||||
| 07 | 21:55 | Calm | 16.09 | Partly Cloudy | SCT070 | 14 | 14 | 100% | 76.23 | 0.0 | |||||||
| 07 | 21:35 | Calm | 16.09 | A Few Clouds | FEW070 | 14 | 14 | 100% | 76.23 | 0.0 | |||||||
| 07 | 21:15 | Calm | 16.09 | A Few Clouds | FEW040 | 14 | 14 | 100% | 76.2 | 0.0 | |||||||
| 07 | 20:55 | Calm | 16.09 | Partly Cloudy | FEW036 SCT042 | 14 | 14 | 100% | 76.2 | 0.0 | |||||||
| 07 | 20:35 | Calm | 16.09 | Partly Cloudy | SCT033 SCT040 | 15 | 15 | 100% | 76.17 | 0.0 | |||||||
| 07 | 20:15 | Calm | 16.09 | A Few Clouds | FEW033 FEW041 | 15 | 15 | 100% | 76.17 | 0.0 | |||||||
| 07 | 19:55 | Calm | 16.09 | Fair | CLR | 17 | 15 | 88% | 76.15 | 0.0 | |||||||
| 07 | 19:35 | Calm | 16.09 | Fair | CLR | 18 | 13 | 73% | 76.15 | 0.0 | |||||||
| 07 | 19:15 | SW 7 | 16.09 | Fair | CLR | 19 | 13 | 68% | 76.15 | 0.0 | |||||||
| 07 | 18:35 | W 7 | 16.09 | Overcast | OVC040 | 21 | 13 | 60% | 76.1 | 0.0 | |||||||
| 07 | 18:15 | W 17 | 16.09 | Overcast | OVC038 | 22 | 14 | 61% | 76.07 | 0.0 | |||||||
| 07 | 17:55 | W 15 G 24 | 16.09 | Mostly Cloudy | BKN036 BKN043 | 21 | 14 | 64% | 76.07 | 0.0 | |||||||
| 07 | 17:35 | SW 7 | 16.09 | Partly Cloudy | SCT037 SCT043 | 22 | 15 | 65% | 76.07 | 0.0 | |||||||
| 07 | 17:15 | SW 11 | 16.09 | Partly Cloudy | SCT038 | 22 | 15 | 65% | 76.07 | 0.0 | |||||||
| 07 | 16:55 | SW 7 | 16.09 | A Few Clouds | FEW037 | 22 | 15 | 65% | 76.05 | 0.0 | |||||||
| 07 | 16:35 | SW 7 | 16.09 | Fair | CLR | 22 | 15 | 65% | 76.05 | 0.0 | |||||||
| 07 | 16:15 | SW 9 | 16.09 | Partly Cloudy | SCT030 SCT035 | 22 | 15 | 65% | 76.05 | 0.0 | |||||||
| 07 | 15:15 | Calm | 16.09 | Overcast | OVC031 | 21 | 15 | 69% | 76.07 | 0.0 | |||||||
| 07 | 14:55 | Calm | 16.09 | Mostly Cloudy | BKN028 | 20 | 15 | 73% | 76.07 | 0.0 | |||||||
| 07 | 14:35 | Calm | 16.09 | Mostly Cloudy | BKN026 | 21 | 15 | 69% | 76.07 | 0.0 | |||||||
| 07 | 14:15 | W 7 | 16.09 | Mostly Cloudy | BKN026 BKN031 | 20 | 15 | 73% | 76.07 | 0.0 | |||||||
| 07 | 13:55 | SW 9 | 16.09 | Mostly Cloudy | BKN026 BKN031 | 20 | 16 | 78% | 76.1 | 0.0 | |||||||
| 07 | 13:35 | W 15 | 16.09 | Overcast | BKN022 OVC027 | 20 | 16 | 78% | 76.12 | 0.0 | |||||||
| 07 | 13:15 | Calm | 16.09 | Overcast | OVC022 | 19 | 16 | 83% | 76.12 | 0.0 | |||||||
| 07 | 12:55 | W 11 | 16.09 | Overcast | BKN019 OVC024 | 19 | 16 | 83% | 76.12 | 0.0 | |||||||
| 07 | 12:35 | Calm | 16.09 | Overcast | BKN018 OVC033 | 20 | 17 | 83% | 76.15 | 0.0 | |||||||
| 07 | 11:55 | W 11 | 16.09 | Overcast | BKN015 OVC021 | 19 | 17 | 88% | 76.15 | 0.0 | |||||||
| 07 | 11:35 | W 11 G 22 | 16.09 | Overcast | BKN020 OVC025 | 19 | 16 | 83% | 76.15 | 0.0 | |||||||
| 07 | 11:15 | W 17 | 16.09 | Overcast | OVC018 | 19 | 17 | 88% | 76.12 | 0.0 | |||||||
| 07 | 10:55 | W 15 | 16.09 | Overcast | BKN019 BKN025 OVC050 | 20 | 18 | 88% | 76.1 | 0.0 | |||||||
| 07 | 10:35 | SW 11 | 16.09 | Mostly Cloudy | BKN017 BKN022 BKN027 | 20 | 19 | 94% | 76.05 | 0.0 | |||||||
| 07 | 10:15 | SW 7 | 16.09 | Mostly Cloudy | BKN014 BKN027 BKN110 | 21 | 19 | 88% | 76.05 | 0.0 | |||||||
| 07 | 09:55 | SW 7 | 16.09 | Mostly Cloudy | SCT027 SCT055 BKN100 | 20 | 19 | 94% | 76.07 | 0.0 | |||||||
| 07 | 09:35 | Calm | 16.09 | Mostly Cloudy | SCT011 SCT024 BKN055 | 20 | 19 | 94% | 76.05 | 0.0 | |||||||
| 07 | 09:15 | W 6 | 16.09 | Overcast | SCT009 BKN012 OVC024 | 19 | 19 | 100% | 76.02 | 0.0 | |||||||
| 07 | 08:55 | Calm | 16.09 | Overcast | BKN008 BKN013 OVC019 | 19 | 19 | 100% | 76.05 | 0.0 | |||||||
| 07 | 08:35 | Calm | 16.09 | Mostly Cloudy | FEW008 SCT019 BKN039 | 18 | 18 | 100% | 76.02 | 0.0 | |||||||
| 07 | 08:15 | SW 7 | 9.66 | Fog/Mist | SCT007 SCT039 BKN046 | 17 | 17 | 100% | 76.02 | 0.0 | |||||||
| 07 | 07:55 | SW 6 | 14.48 | Overcast | BKN007 BKN030 OVC075 | 17 | 17 | 100% | 76 | 0.0 | |||||||
| 07 | 07:35 | SW 6 | 14.48 | Overcast | SCT007 SCT026 OVC042 | 17 | 17 | 100% | 75.97 | 0.0 | |||||||
| 07 | 07:15 | Calm | 4.02 | Fog/Mist | FEW007 BKN035 OVC041 | 17 | 17 | 100% | 75.95 | 0.0 | |||||||
| 07 | 06:55 | Calm | 11.27 | Overcast | FEW020 SCT029 OVC033 | 17 | 17 | 100% | 75.92 | 0.0 | |||||||
| 07 | 06:35 | W 7 | 3.22 | Fog/Mist | FEW008 SCT016 BKN021 | 17 | 17 | 100% | 75.92 | 0.0 | |||||||
| 07 | 06:15 | Vrbl 11 | 12.87 | Overcast | BKN006 BKN011 OVC021 | 17 | 17 | 100% | 75.9 | 0.0 | |||||||
| 07 | 05:55 | Vrbl 9 | 4.02 | Fog/Mist | OVC005 | 18 | 18 | 100% | 75.84 | 0.0 | |||||||
| 07 | 05:35 | Vrbl 11 | 4.83 | Fog/Mist | OVC005 | 18 | 18 | 100% | 75.82 | 0.0 | |||||||
| 07 | 05:15 | N 13 | 3.22 | Fog/Mist | BKN004 OVC014 | 18 | 18 | 100% | 75.79 | 0.0 | |||||||
| 07 | 04:55 | W 7 | 1.61 | Fog/Mist | OVC006 | 18 | 18 | 100% | 75.82 | 0.0 | |||||||
| 07 | 04:35 | Calm | 2.01 | Fog/Mist | OVC008 | 18 | 18 | 100% | 75.82 | 0.0 | |||||||
| Date | Time (cdt) | Wind (kph) | Vis. (km) | Weather | Sky Cond. | Air | Dwpt | Max. | Min. | Relative Humidity | Wind Chill (°C) | Heat Index (°C) | altimeter (cm) | sea level (mb) | 1 hr | 3 hr | 6 hr |
| 6 hour | |||||||||||||||||
| Temperature (ºC) | Pressure | Precipitation (cm) | |||||||||||||||